New Orleans Lakefront, LA

8:17 AM CST on November 18, 2019 (GMT -0600)
Lakefront

Weather History for KNEW - September, 2019

Change the Weather History Date:

Monday, September 23, 2019

  Actual Average Record
Temperature  
Mean Temperature 82 °F 78 °F  
Max Temperature 91 °F 86 °F 94 °F (1993)
Min Temperature 72 °F 70 °F 55 °F (1983)
Degree Days  
Heating Degree Days 0 0  
Month to date heating degree days 0 0  
Since 1 July heating degree days 0 0  
Cooling Degree Days 17 13  
Month to date cooling degree days 483 358  
Year to date cooling degree days 3124 2604  
Growing Degree Days 31 (Base 50)    
Moisture  
Dew Point 69 °F    
Average Humidity 69    
Maximum Humidity 93    
Minimum Humidity 44    
Precipitation  
Precipitation 0.00 in 0.15 in 4.06 in (1956)
Month to date precipitation 0.19 4.04  
Year to date precipitation 46.95 48.25  
Snow  
Snow 0.00 in - - ()
Month to date snowfall 0.0  
Since 1 July snowfall 0.0  
Since 1 September snowfall 0.0  
Snow Depth 0.00 in    
Sea Level Pressure  
Sea Level Pressure 30.04 in    
Wind  
Wind Speed 5 mph (ESE)    
Max Wind Speed 14 mph    
Max Gust Speed 19 mph    
Visibility 10 miles    
Events      
T = Trace of Precipitation, MM = Missing Value Source: NWS Daily Summary

Daily Weather History Graph

Daily Weather History Graph

Search for Another Location

Airport or City:

Astronomy

Sep. 23, 2019 Rise Set
Actual Time 6:48 AM CDT 6:55 PM CDT
Civil Twilight 6:25 AM CDT 7:19 PM CDT
Nautical Twilight 5:57 AM CDT 7:47 PM CDT
Astronomical Twilight 5:29 AM CDT 8:15 PM CDT
Moon 12:59 AM CDT (9/23) 3:22 PM CDT (9/23)
Length of Visible Light 12h 54m
Length of Day
12h 06m
Waning Crescent, 33% of the Moon is Illuminated
Sep 23
Waning Crescent
Sep 28
New
Oct 5
First Quarter
Oct 13
Full
Oct 21
Last Quarter

Hourly Weather History & Observations

Time (CDT) Temp. Heat Index Dew Point Humidity Pressure Visibility Wind Dir Wind Speed Gust Speed Precip Events Conditions
12:53 AM 77.0 °F - 72.0 °F 84% 30.06 in 10.0 mi ESE 3.5 mph - N/A   Clear
1:53 AM 77.0 °F - 72.0 °F 84% 30.06 in 10.0 mi South 3.5 mph - N/A   Clear
2:53 AM 75.9 °F - 71.1 °F 85% 30.04 in 10.0 mi SE 4.6 mph - N/A   Partly Cloudy
3:53 AM 75.9 °F - 71.1 °F 85% 30.03 in 10.0 mi SE 4.6 mph - N/A   Clear
4:53 AM 75.9 °F - 71.1 °F 85% 30.03 in 10.0 mi Calm Calm - N/A   Clear
5:53 AM 75.9 °F - 70.0 °F 82% 30.04 in 10.0 mi Calm Calm - N/A   Clear
6:53 AM 78.1 °F - 72.0 °F 81% 30.04 in 10.0 mi East 5.8 mph - N/A   Clear
7:53 AM 80.1 °F 83.8 °F 72.0 °F 76% 30.07 in 10.0 mi ENE 8.1 mph - N/A   Clear
8:53 AM 81.0 °F 85.2 °F 72.0 °F 74% 30.08 in 10.0 mi NE 10.4 mph - N/A   Clear
9:53 AM 82.0 °F 85.9 °F 70.0 °F 67% 30.09 in 10.0 mi ENE 9.2 mph - N/A   Clear
10:53 AM 84.0 °F 87.8 °F 69.1 °F 61% 30.09 in 10.0 mi ENE 8.1 mph - N/A   Partly Cloudy
11:53 AM 84.9 °F 88.2 °F 68.0 °F 57% 30.08 in 10.0 mi ENE 8.1 mph - N/A   Partly Cloudy
12:53 PM 86.0 °F 89.4 °F 68.0 °F 55% 30.06 in 10.0 mi ENE 9.2 mph - N/A   Partly Cloudy
1:53 PM 87.1 °F 89.9 °F 66.9 °F 51% 30.05 in 10.0 mi ENE 10.4 mph - N/A   Partly Cloudy
2:53 PM 87.1 °F 87.8 °F 63.0 °F 44% 30.03 in 10.0 mi East 8.1 mph - N/A   Clear
3:53 PM 87.1 °F 88.3 °F 64.0 °F 46% 30.02 in 10.0 mi East 6.9 mph - N/A   Clear
4:53 PM 86.0 °F 86.8 °F 63.0 °F 46% 30.01 in 10.0 mi ESE 5.8 mph - N/A   Clear
5:53 PM 84.9 °F 86.6 °F 64.9 °F 51% 30.00 in 10.0 mi ESE 5.8 mph - N/A   Clear
6:53 PM 82.0 °F 84.1 °F 66.0 °F 58% 30.00 in 10.0 mi SSE 8.1 mph - N/A   Clear
7:53 PM 81.0 °F 83.3 °F 66.9 °F 62% 30.00 in 10.0 mi SE 6.9 mph - N/A   Clear
8:53 PM 79.0 °F - 68.0 °F 69% 30.01 in 10.0 mi SSE 5.8 mph - N/A   Clear
9:53 PM 79.0 °F - 68.0 °F 69% 30.01 in 10.0 mi South 3.5 mph - N/A   Clear
10:53 PM 78.1 °F - 69.1 °F 74% 30.00 in 10.0 mi SSE 4.6 mph - N/A   Clear
11:53 PM 77.0 °F - 70.0 °F 79% 29.99 in 10.0 mi SSW 4.6 mph - N/A   Clear